Date,TemperatureHighF,TemperatureAvgF,TemperatureLowF,DewpointHighF,DewpointAvgF,DewpointLowF,HumidityHigh,HumidityAvg,HumidityLow,PressureMaxIn,PressureMinIn,WindSpeedMaxMPH,WindSpeedAvgMPH,GustSpeedMaxMPH,PrecipitationSumIn
2013-1-1,43,40,31,-10,-12,-19,10,10,10,30.02,29.83,10,4,21,0.00
2013-1-2,34,29,25,-16,-21,-24,10,10,10,30.19,29.99,11,3,20,0.00
2013-1-3,36,29,24,-16,-20,-25,10,10,10,30.21,30.08,7,2,14,0.00
2013-1-4,39,34,27,-13,-17,-22,10,10,10,30.12,29.98,12,4,27,0.02
2013-1-5,43,34,28,-10,-16,-22,10,10,10,30.32,30.04,10,2,19,0.00
2013-1-6,32,32,32,-18,-18,-18,10,10,10,30.22,30.22,0,0,2,0.00
2013-1-7,32,32,32,-18,-18,-18,10,10,10,30.22,30.22,0,0,2,0.00
2013-1-8,32,32,32,-18,-18,-18,10,10,10,30.22,30.22,0,0,2,0.00
2013-1-9,32,32,32,-18,-18,-18,10,10,10,30.22,30.22,0,0,2,0.00
2013-1-10,46,40,32,-7,-12,-18,10,10,10,30.51,30.22,8,2,14,0.00
2013-1-20,57,48,33,-100,-100,-100,0,0,100,30.03,29.70,13,6,30,0.32
2013-1-21,36,31,26,-100,-100,-100,0,0,100,30.09,29.81,5,2,12,0.00
2013-1-22,26,20,15,-100,-100,-100,0,0,100,30.22,29.82,11,-14,23,0.02
2013-1-23,15,5,12,-100,-100,-100,0,0,100,30.23,30.20,6,-633,13,0.00
2013-1-24,25,21,17,-100,-100,-100,0,0,100,30.41,30.22,10,6,24,0.00
2013-1-25,31,19,13,-100,-100,-100,0,0,100,30.42,30.05,6,2,15,0.00
2013-1-26,28,21,12,-28,-99,-100,10,0,10,30.29,29.83,9,3,17,0.01
2013-1-27,35,30,21,-100,-100,-100,0,0,100,30.50,30.45,7,2,14,0.00
2013-1-28,38,31,21,-100,-100,-100,0,0,100,30.49,29.99,3,1,11,0.06
2013-1-29,54,44,36,-100,-100,-100,0,0,100,30.11,29.98,3,1,7,0.00
2013-1-30,64,54,43,-100,-100,-100,0,0,100,30.03,29.36,11,2,34,0.39
2013-1-31,61,49,31,-100,-100,-100,0,0,100,29.80,29.10,9,6,27,1.13
2013-2-1,32,29,24,-100,-100,-100,0,0,100,30.23,29.81,11,5,27,0.04
2013-2-2,35,26,20,-100,-100,-100,0,0,100,30.30,30.03,7,3,17,0.00
2013-2-3,35,29,23,-100,-100,-100,0,0,100,30.06,29.76,5,1,12,0.04
2013-2-4,34,28,23,-100,-100,-100,0,0,100,29.98,29.81,10,4,21,0.02
2013-2-5,37,33,28,-100,-100,-100,0,0,100,29.94,29.85,4,1,10,0.01
2013-2-6,41,35,29,-100,-100,-100,0,0,100,30.33,29.87,8,3,19,0.01
2013-2-7,41,31,24,-100,-100,-100,0,0,100,30.46,30.26,5,2,17,0.00
2013-2-8,42,38,30,-100,-100,-100,0,0,100,30.25,29.56,14,6,32,2.17
2013-2-9,34,29,23,-100,-100,-100,0,0,100,30.31,29.70,13,4,31,0.19
2013-2-10,40,27,15,-100,-100,-100,0,0,100,30.46,30.31,6,1,14,0.00
2013-2-23,61,49,34,4,-5,-17,10,10,10,30.02,29.33,16,8,32,4.75
2013-2-24,33,30,25,-18,-20,-24,10,10,10,30.45,30.02,12,5,23,0.05
2013-2-25,35,27,20,-16,-23,-28,10,10,10,30.56,30.32,8,3,15,0.00
2013-2-26,35,28,23,-16,-22,-25,10,10,10,30.33,30.01,6,1,11,0.04
2013-2-27,34,28,23,-17,-22,-26,10,10,10,30.24,30.05,11,4,20,0.02
2013-2-28,35,32,28,-16,-19,-22,10,10,10,30.21,30.10,5,1,8,0.02
2013-3-1,46,37,31,-8,-14,-19,10,10,10,30.34,29.91,10,3,17,0.01
2013-3-2,44,37,31,-9,-14,-19,10,10,10,30.02,29.92,9,4,17,0.00
2013-3-3,39,33,30,-13,-17,-20,10,10,10,30.00,29.91,12,5,21,0.00
2013-3-4,43,35,28,-10,-16,-22,10,10,10,30.15,30.00,15,6,25,0.17
2013-3-5,50,38,30,-5,-14,-20,10,10,10,30.25,30.14,8,2,18,0.00
2013-3-6,44,39,35,-9,-13,-16,10,10,10,30.19,29.95,21,10,42,9.63
2013-3-7,41,36,34,-11,-15,-17,10,10,10,30.30,30.08,14,6,29,0.14
2013-3-8,41,35,32,-11,-16,-19,10,10,10,30.39,30.22,11,4,19,0.12
2013-3-9,57,43,33,1,-10,-17,10,10,10,30.55,30.38,10,3,17,0.00
2013-3-10,46,37,28,-8,-14,-21,10,10,10,30.62,30.54,6,1,13,0.00
2013-3-11,57,45,33,1,-8,-18,10,10,10,30.56,30.32,4,1,11,0.00
2013-3-12,56,52,47,1,-3,-6,10,10,10,30.33,29.91,9,2,17,0.69
2013-3-13,52,45,38,-2,-8,-13,10,10,10,30.14,30.04,14,3,21,0.00
2013-3-14,43,37,31,-10,-15,-19,10,10,10,30.20,30.10,14,6,27,0.24
2013-3-15,51,40,30,-3,-12,-20,10,10,10,30.24,29.95,14,4,23,0.01
2013-3-16,43,37,33,-10,-14,-18,10,10,10,30.08,29.89,5,2,9,0.00
2013-3-17,40,35,30,-12,-16,-20,10,10,10,30.42,30.03,11,3,19,0.12
2013-3-18,40,34,31,-12,-16,-19,10,10,10,30.50,30.41,10,3,99,0.00
2013-3-19,35,30,24,-16,-20,-25,10,10,10,30.11,30.00,8,1,14,0.01
2013-3-20,43,35,31,-10,-16,-19,10,10,10,30.23,29.92,8,1,15,0.02
2013-3-21,43,34,30,-10,-17,-20,10,10,10,29.93,29.76,9,3,17,0.01
2013-3-22,43,37,29,-10,-15,-21,10,10,10,29.95,29.88,14,4,22,0.01
2013-3-23,48,43,37,-6,-10,-15,10,10,10,30.06,29.91,13,4,24,0.01
2013-3-24,50,38,28,-4,-14,-21,10,10,10,30.08,29.81,11,2,17,0.00
2013-3-25,40,36,32,-13,-15,-18,10,10,10,29.81,29.54,14,4,27,0.92
2013-3-26,54,42,33,-2,-10,-18,10,10,10,29.99,29.70,9,2,17,0.05
2013-3-27,54,44,34,-1,-9,-17,10,10,10,30.11,29.99,11,4,21,0.00
2013-3-28,50,43,35,-5,-10,-16,10,10,10,30.24,30.09,9,4,15,0.00
2013-3-29,59,46,35,2,-8,-16,10,10,10,30.28,30.18,11,3,22,0.00
2013-3-30,59,46,35,2,-7,-16,10,10,10,30.30,30.20,8,2,15,0.00
2013-3-31,56,47,35,1,-7,-16,10,10,10,30.27,29.80,9,2,21,0.61
2013-4-1,68,54,41,9,-2,-12,10,10,10,30.03,29.74,14,4,25,0.08
2013-4-2,47,41,33,-6,-12,-17,10,10,10,30.22,30.03,15,4,25,0.00
2013-4-3,49,41,35,-6,-11,-16,10,10,10,30.42,30.21,14,5,27,0.09
2013-4-4,52,42,31,-2,-10,-19,10,10,10,30.53,30.22,7,2,14,0.00
2013-4-5,64,50,39,7,-4,-13,10,10,10,30.23,29.83,11,3,21,0.15
2013-4-6,47,44,36,-6,-9,-15,10,10,10,30.42,30.11,11,4,22,0.00
2013-4-7,104,52,46,36,-2,-8,10,10,10,30.41,30.14,6,2,14,0.00
2013-4-8,71,59,50,12,3,-4,10,10,10,30.20,30.09,8,1,13,0.00
2013-4-9,85,71,54,22,12,-2,10,10,10,30.11,30.03,12,3,21,0.00
2013-4-10,73,64,54,13,6,-1,10,10,10,30.06,29.90,13,3,29,0.38
2013-4-11,61,55,46,4,-1,-7,10,10,10,30.13,29.88,10,3,22,0.05
2013-4-12,46,44,43,-7,-9,-16,10,10,10,30.11,29.80,13,6,24,1.35
2013-4-13,59,49,42,3,-5,-10,10,10,10,30.10,29.83,8,2,14,0.06
2013-4-14,62,53,42,5,-2,-10,10,10,10,30.33,30.09,14,2,27,0.02
2013-4-15,55,50,45,0,-5,-8,10,10,10,30.50,30.32,8,2,15,0.00
2013-4-16,68,58,47,10,2,-6,10,10,10,30.49,30.26,6,2,18,0.00
2013-4-17,73,61,51,9,4,-4,10,10,10,30.41,30.23,8,2,15,0.01
2013-4-18,61,54,46,4,-2,-8,10,10,10,30.47,30.22,6,1,14,0.00
2013-4-19,76,66,56,15,8,0,10,10,10,30.22,29.79,13,2,30,0.48
2013-4-20,66,55,49,8,0,-5,10,10,10,30.42,29.79,12,5,24,0.27
2013-4-21,50,45,37,-4,-8,-14,10,10,10,30.74,30.41,10,3,18,0.00
2013-4-22,48,45,37,-6,-8,-14,10,10,10,30.75,30.58,14,6,24,0.00
2013-4-23,51,46,42,-4,-8,-10,10,10,10,30.59,30.22,12,4,23,0.00
2013-4-24,66,54,39,8,-2,-13,10,10,10,30.23,29.97,5,2,14,0.00
2013-4-25,63,55,47,6,-1,-7,10,10,10,30.40,30.01,11,3,21,0.01
2013-4-26,66,54,40,8,-2,-12,10,10,10,30.52,30.40,7,1,11,0.00
2013-4-27,66,55,40,8,-1,-12,10,10,10,30.55,30.43,6,1,11,0.00
2013-4-28,70,57,42,10,1,-11,10,10,10,30.45,30.34,4,1,13,0.00
2013-4-29,57,54,51,1,-1,-4,10,10,10,30.37,30.28,5,1,11,0.24
2013-4-30,61,55,48,4,-1,-6,10,10,10,30.45,30.30,9,3,17,0.00
2013-5-1,59,52,43,3,-3,-10,10,10,10,30.60,30.43,10,2,17,0.00
2013-5-2,66,54,42,8,-1,-11,10,10,10,30.59,30.45,6,1,11,0.00
2013-5-3,57,52,48,1,-3,-6,10,10,10,30.58,30.48,10,3,21,0.00
2013-5-4,60,52,44,3,-3,-9,10,10,10,30.49,30.38,8,2,14,0.00
2013-5-5,56,50,46,0,-5,-7,10,10,10,30.42,30.35,8,3,17,0.00
2013-5-6,59,52,48,3,-3,-6,10,10,10,30.38,30.28,9,3,14,0.00
2013-5-7,62,55,50,5,0,-4,10,10,10,30.29,30.19,8,2,15,0.07
2013-5-8,73,62,57,13,5,1,10,10,10,30.20,30.06,7,2,14,0.53
2013-5-9,75,64,55,14,6,0,10,10,10,30.12,30.01,9,1,14,0.18
2013-5-10,81,68,57,19,10,1,10,10,10,30.12,30.00,5,1,12,0.00
2013-5-11,78,67,63,17,9,5,10,10,10,30.03,29.81,7,1,14,0.38
2013-5-12,71,63,52,12,6,-3,10,10,10,30.09,29.78,14,3,24,0.17
2013-5-13,60,52,42,4,-2,-11,10,10,10,30.22,30.08,11,3,21,0.00
2013-5-14,65,52,40,7,-3,-12,10,10,10,30.26,30.15,9,2,17,0.00
2013-5-15,77,63,49,16,5,-5,10,10,10,30.21,29.80,8,1,14,0.00
2013-5-16,80,69,59,18,10,2,10,10,10,29.97,29.81,5,1,11,0.04
2013-5-17,77,66,53,16,8,-2,10,10,10,30.32,29.94,8,2,14,0.00
2013-5-18,68,60,54,10,3,-1,10,10,10,30.43,30.31,4,1,9,0.07
2013-5-19,64,58,55,6,2,0,10,10,10,30.42,30.27,6,1,14,0.53
2013-5-20,81,69,60,19,10,3,10,10,10,30.29,30.09,4,0,8,0.01
2013-5-21,90,76,63,26,16,6,10,10,10,30.10,29.95,8,2,13,0.00
2013-5-22,87,75,68,24,15,9,10,10,10,30.04,29.94,7,1,11,0.00
2013-5-23,84,74,67,22,14,9,10,10,10,30.02,29.88,10,2,21,0.11
2013-5-24,71,58,45,11,2,-8,10,10,10,30.09,29.81,12,4,22,0.25
2013-5-25,61,52,44,4,-3,-9,10,10,10,30.14,30.03,17,6,30,0.72
2013-5-26,70,59,46,11,3,-8,10,10,10,30.33,30.11,14,4,23,0.00
2013-5-27,78,62,43,17,5,-10,10,10,10,30.38,30.25,8,2,14,0.00
2013-5-28,73,61,50,13,4,-4,10,10,10,30.34,30.23,5,0,12,0.43
2013-5-29,93,76,59,28,15,2,10,10,10,30.24,30.12,8,2,15,0.01
2013-5-30,95,82,71,30,20,12,10,10,10,30.26,30.17,7,2,12,0.00
2013-5-31,95,82,70,30,20,11,10,10,10,30.25,30.11,5,1,12,0.00
2013-6-1,95,82,68,30,20,10,10,10,10,30.15,30.02,8,2,18,0.00
2013-6-2,92,79,70,28,18,11,10,10,10,30.05,29.91,10,2,22,0.25
2013-6-3,81,73,57,20,13,1,10,10,10,29.98,29.90,8,1,13,0.59
2013-6-4,78,68,58,17,9,1,10,10,10,30.22,29.98,11,2,15,0.00
2013-6-5,70,64,52,11,6,-3,10,10,10,30.32,30.22,5,2,12,0.00
2013-6-6,73,65,57,13,7,1,10,10,10,30.25,30.10,7,1,13,0.04
2013-6-7,73,66,62,12,8,4,10,10,10,30.11,29.65,7,2,13,2.72
2013-6-8,82,71,59,20,12,2,10,10,10,30.17,29.62,9,2,22,0.44
2013-6-9,86,74,61,23,14,4,10,10,10,30.30,30.17,4,1,9,0.00
2013-6-10,71,68,65,12,10,7,10,10,10,30.27,29.93,4,1,11,1.55
2013-6-11,85,76,69,22,16,10,10,10,10,29.93,29.75,10,3,19,0.05
2013-6-12,84,74,65,21,14,7,10,10,10,29.97,29.84,12,3,18,0.00
2013-6-13,75,68,61,15,9,4,10,10,10,29.96,29.49,8,1,14,0.86
2013-6-14,76,63,55,16,5,0,10,10,10,30.01,29.57,10,3,20,0.08
2013-6-15,85,71,57,22,12,1,10,10,10,30.13,30.01,8,2,14,0.00
2013-6-16,89,74,60,26,14,3,10,10,10,30.13,29.91,11,2,21,0.00
2013-6-17,91,77,65,27,16,7,10,10,10,30.04,29.93,7,2,14,0.00
2013-6-18,81,70,65,20,11,7,10,10,10,30.01,29.90,13,1,20,0.87
2013-6-19,77,69,60,16,10,3,10,10,10,30.28,29.96,8,2,13,0.00
2013-6-20,80,70,55,19,11,0,10,10,10,30.40,30.28,5,1,11,0.00
2013-6-21,81,71,56,19,12,0,10,10,10,30.44,30.37,5,1,11,0.00
2013-6-22,84,68,57,22,10,1,10,10,10,30.39,30.36,4,0,8,0.00
2013-6-23,89,81,63,26,19,5,10,10,10,30.32,30.18,5,1,11,0.24
2013-6-24,96,81,72,30,20,12,10,10,10,30.20,30.08,12,2,21,0.01
2013-6-25,95,82,69,30,20,10,10,10,10,30.11,29.94,9,2,17,0.00
2013-6-26,94,82,72,30,20,12,10,10,10,29.98,29.88,8,2,14,0.07
2013-6-27,89,79,72,25,18,12,10,10,10,29.93,29.69,8,2,19,0.02
2013-6-28,92,80,72,28,19,12,10,10,10,29.70,29.58,8,2,15,0.05
2013-6-29,86,77,69,23,16,10,10,10,10,29.82,29.60,6,1,12,0.05
2013-6-30,88,77,70,24,16,11,10,10,10,30.01,29.81,4,1,11,0.05
2013-7-1,89,77,74,26,16,14,10,10,10,30.16,30.00,6,1,13,0.11
2013-7-2,87,79,74,24,18,14,10,10,10,30.31,30.15,5,1,11,0.00
2013-7-3,89,80,71,25,18,12,10,10,10,30.37,30.27,6,1,16,0.85
2013-7-4,95,83,73,30,21,14,10,10,10,30.38,30.27,8,2,14,0.00
2013-7-5,96,85,72,31,22,12,10,10,10,30.34,30.21,8,2,16,0.00
2013-7-6,97,87,75,31,24,14,10,10,10,30.27,30.13,8,2,14,0.00
2013-7-7,98,87,76,32,24,15,10,10,10,30.19,30.03,8,2,15,0.00
2013-7-8,93,80,72,28,18,12,10,10,10,30.17,30.10,9,2,16,0.26
2013-7-9,92,81,70,28,19,11,10,10,10,30.19,30.10,6,1,11,0.00
2013-7-10,93,82,72,29,20,13,10,10,10,30.15,29.93,8,2,17,0.15
2013-7-11,88,80,76,25,19,15,10,10,10,30.02,29.93,4,1,9,0.09
2013-7-12,78,73,70,17,14,9,10,10,10,30.17,30.01,10,4,20,0.19
2013-7-13,87,79,71,24,18,12,10,10,10,30.40,27.37,7,1,57,0.00
2013-7-14,95,82,74,30,20,14,10,10,10,30.45,30.36,6,1,11,0.00
2013-7-15,97,86,74,31,23,14,10,10,10,30.38,30.22,7,2,12,0.00
2013-7-16,95,86,76,30,23,16,10,10,10,30.30,30.22,7,2,14,0.00
2013-7-17,94,85,74,29,22,14,10,10,10,30.30,30.19,5,1,9,0.00
2013-7-18,100,88,77,33,25,16,10,10,10,30.19,30.06,6,1,12,0.00
2013-7-19,100,90,80,34,26,19,10,10,10,30.09,29.91,9,3,18,0.00
2013-7-20,97,88,80,32,24,18,10,10,10,29.95,29.84,11,3,19,0.00
2013-7-21,86,79,74,24,18,14,10,10,10,30.06,29.94,7,1,13,0.02
2013-7-22,86,79,75,23,18,15,10,10,10,30.06,29.89,6,1,14,0.09
2013-7-23,89,81,73,26,20,13,10,10,10,29.90,29.67,8,1,14,0.39
2013-7-24,87,79,72,24,18,12,10,10,10,30.01,29.73,8,2,13,0.00
2013-7-25,72,67,65,12,9,7,10,10,10,30.14,30.01,8,3,16,0.00
2013-7-26,83,73,65,21,13,7,10,10,10,30.17,30.09,6,2,13,0.00
2013-7-27,84,78,64,22,17,6,10,10,10,30.18,30.15,4,1,10,0.00
2013-7-28,84,84,72,22,21,12,10,10,10,30.17,30.07,2,2,8,0.32
2013-7-29,90,77,68,26,16,9,10,10,10,30.23,30.06,8,1,13,0.06
2013-7-30,85,74,60,23,14,3,10,10,10,30.29,30.21,7,2,14,0.00
2013-7-31,83,73,60,21,14,4,10,10,10,30.28,30.16,4,1,10,0.00
2013-8-1,76,72,69,16,12,10,10,10,10,30.16,29.94,4,1,11,0.45
2013-8-2,89,77,68,26,17,10,10,10,10,30.04,29.91,8,2,17,0.00
2013-8-3,81,73,68,19,13,9,10,10,10,30.05,29.98,8,1,14,0.06
2013-8-4,81,73,62,20,13,5,10,10,10,30.09,29.96,9,2,17,0.00
2013-8-5,80,69,59,19,10,3,10,10,10,30.17,30.09,8,2,13,0.00
2013-8-6,81,72,58,19,12,2,10,10,10,30.24,30.16,5,1,11,0.00
2013-8-7,81,74,69,20,14,10,10,10,10,30.26,30.18,5,1,13,0.00
2013-8-8,88,77,71,24,16,12,10,10,10,30.19,30.11,6,1,13,0.67
2013-8-9,89,80,75,26,19,15,10,10,10,30.14,29.93,8,1,15,0.18
2013-8-10,86,78,72,23,17,12,10,10,10,30.16,29.97,6,1,11,0.00
2013-8-11,81,74,64,20,14,6,10,10,10,30.24,30.14,4,1,8,0.00
2013-8-12,84,74,68,21,14,9,10,10,10,30.15,30.03,4,0,10,0.07
2013-8-13,79,73,69,18,13,10,10,10,10,30.05,29.82,5,1,10,2.99
2013-8-14,76,69,61,15,10,4,10,10,10,30.17,29.85,11,4,21,0.00
2013-8-15,78,67,54,17,8,-1,10,10,10,30.27,30.16,7,1,11,0.00
2013-8-16,80,69,56,19,10,0,10,10,10,30.32,30.24,4,1,9,0.00
2013-8-17,80,69,57,18,10,1,10,10,10,30.39,27.34,5,0,9,0.00
2013-8-18,77,70,63,16,11,6,10,10,10,30.37,30.24,6,1,12,0.01
2013-8-19,82,71,60,18,12,4,10,10,10,30.27,30.16,6,1,11,0.00
2013-8-20,87,75,64,24,15,6,10,10,10,30.25,30.18,4,1,10,0.00
2013-8-21,90,79,68,26,18,9,10,10,10,30.30,30.18,6,1,11,0.00
2013-8-22,86,76,71,23,16,12,10,10,10,30.19,29.99,7,1,15,0.01
2013-8-23,84,74,66,21,14,8,10,10,10,30.19,29.99,6,1,11,0.00
2013-8-24,76,69,60,16,10,3,10,10,10,30.46,30.19,8,2,13,0.00
2013-8-25,83,69,55,21,10,0,10,10,10,30.53,30.38,5,1,9,0.00
2013-8-26,87,74,63,24,14,6,10,10,10,30.39,30.04,8,2,17,0.00
2013-8-27,88,78,70,25,17,11,10,10,10,30.04,29.94,10,2,17,0.02
2013-8-28,85,75,68,22,15,9,10,10,10,30.01,29.95,3,0,7,0.02
2013-8-29,78,73,70,17,13,11,10,10,10,30.15,29.97,8,2,14,0.01
2013-8-30,87,76,69,24,16,10,10,10,10,30.14,29.99,7,2,14,0.00
2013-8-31,92,79,69,28,18,10,10,10,10,30.01,29.90,7,2,13,0.00
2013-9-1,90,79,73,26,18,13,10,10,10,29.97,29.92,6,1,11,0.00
2013-9-2,84,77,71,21,16,12,10,10,10,29.90,29.82,4,0,8,0.17
2013-9-3,84,74,66,22,14,8,10,10,10,30.00,29.83,6,1,12,0.01
2013-9-4,82,72,60,20,13,3,10,10,10,30.14,30.01,8,2,14,0.00
2013-9-5,80,70,59,19,11,2,10,10,10,30.25,30.07,8,2,13,0.00
2013-9-6,70,62,53,11,5,-2,10,10,10,30.37,30.25,7,2,14,0.00
2013-9-7,80,64,48,18,6,-6,10,10,10,30.26,30.03,7,1,11,0.00
2013-9-8,84,73,64,21,13,6,10,10,10,30.18,29.93,8,2,15,0.00
2013-9-9,74,66,53,14,8,-2,10,10,10,30.35,30.18,7,1,12,0.00
2013-9-10,90,78,68,26,17,10,10,10,10,30.30,30.16,8,2,14,0.00
2013-9-11,94,82,73,29,20,13,10,10,10,30.24,30.09,5,1,13,0.00
2013-9-12,93,79,72,28,18,12,10,10,10,30.12,29.81,8,1,18,0.19
2013-9-13,78,70,61,17,11,4,10,10,10,29.97,29.75,10,2,17,0.05
2013-9-14,70,60,51,11,3,-3,10,10,10,30.25,29.97,8,3,14,0.00
2013-9-15,76,60,45,15,4,-8,10,10,10,30.34,30.21,7,1,10,0.00
2013-9-16,71,64,60,11,6,3,10,10,10,30.32,30.16,6,1,11,0.05
2013-9-17,60,54,50,3,-1,-4,10,10,10,30.53,30.32,9,4,17,0.00
2013-9-30,70,60,50,11,3,-4,10,10,10,30.19,30.10,4,1,8,0.00
2013-10-1,81,67,55,19,8,-1,10,10,10,30.13,30.02,5,1,8,0.00
2013-10-2,84,70,56,22,11,0,10,10,10,30.13,30.03,5,1,11,0.00
2013-10-3,79,69,58,17,10,2,10,10,10,30.24,30.14,4,0,7,0.00
2013-10-4,86,72,59,23,12,3,10,10,10,30.19,30.08,3,1,7,0.00
2013-10-5,74,68,65,14,10,7,10,10,10,30.20,30.12,4,1,8,0.00
2013-10-6,73,70,66,14,11,8,10,10,10,30.20,30.12,4,1,10,0.00
2013-10-7,80,71,63,19,11,5,10,10,10,30.14,29.91,14,2,24,0.34
2013-10-8,68,60,52,9,3,-3,10,10,10,30.42,30.12,7,2,13,0.00
2013-10-9,62,60,55,5,4,-1,10,10,10,30.47,30.35,11,5,25,0.00
2013-10-10,66,60,57,6,4,1,10,10,10,30.37,30.14,12,5,22,0.54
2013-10-11,65,63,61,7,6,4,10,10,10,30.17,30.07,12,6,24,0.78
2013-10-12,68,63,61,10,6,4,10,10,10,30.35,30.14,13,6,26,0.20
2013-10-13,64,61,58,6,4,2,10,10,10,30.48,30.34,12,5,21,0.00
2013-10-14,64,57,49,6,1,-5,10,10,10,30.46,30.37,5,1,10,0.00
2013-10-15,67,56,45,9,0,-8,10,10,10,30.38,30.21,7,1,11,0.00
2013-10-16,67,62,56,9,5,0,10,10,10,30.22,30.04,4,1,8,0.00
2013-10-17,75,66,61,15,8,4,10,10,10,30.05,29.82,4,1,8,0.00
2013-10-18,69,62,51,10,4,-4,10,10,10,30.11,29.81,11,4,22,0.04
2013-10-19,66,56,43,8,0,-10,10,10,10,30.12,29.88,8,0,14,0.04
2013-10-20,63,55,46,6,-1,-8,10,10,10,30.21,29.88,8,2,17,0.01
2013-10-21,68,52,39,10,-3,-13,10,10,10,30.28,30.11,5,1,14,0.00
2013-10-22,71,56,44,12,0,-9,10,10,10,30.11,29.88,9,1,16,0.00
2013-10-23,53,48,43,-2,-6,-10,10,10,10,29.94,29.71,7,1,14,0.12
2013-10-24,54,45,38,-1,-8,-14,10,10,10,30.16,29.88,11,2,18,0.00
2013-10-25,55,44,37,0,-9,-15,10,10,10,30.37,30.15,11,3,21,0.00
2013-10-26,58,45,31,2,-8,-19,10,10,10,30.36,30.03,13,2,21,0.01
2013-10-27,59,50,41,3,-5,-12,10,10,10,30.26,29.99,11,2,19,0.00
2013-10-28,64,48,33,6,-6,-17,10,10,10,30.42,30.25,8,1,18,0.00
2013-10-29,56,48,42,0,-6,-11,10,10,10,30.51,30.42,8,1,14,0.00
2013-10-30,59,50,40,3,-5,-12,10,10,10,30.48,30.30,3,0,5,0.01
2013-10-31,69,61,52,10,4,-2,10,10,10,30.35,29.94,4,1,14,0.01
2013-11-1,71,65,59,12,7,3,10,10,10,29.94,29.70,12,3,21,0.11
2013-11-2,67,59,52,9,2,-2,10,10,10,29.90,29.73,4,1,8,0.01
2013-11-3,54,47,36,-1,-7,-15,10,10,10,30.56,29.90,8,3,16,0.00
2013-11-4,46,39,33,-8,-13,-18,10,10,10,30.76,30.56,8,2,14,0.00
2013-11-5,57,47,38,1,-7,-14,10,10,10,30.75,30.60,7,1,10,0.00
2013-11-6,62,51,36,5,-3,-15,10,10,10,30.61,30.20,4,1,11,0.00
2013-11-7,65,57,39,7,1,-13,10,10,10,30.19,29.88,11,2,20,0.06
2013-11-8,50,44,38,-4,-9,-14,10,10,10,30.36,30.07,12,3,22,0.01
2013-11-9,53,44,32,-2,-9,-18,10,10,10,30.43,30.12,7,1,13,0.00
2013-11-10,64,52,44,6,-3,-9,10,10,10,30.13,29.95,14,4,27,0.18
2013-11-11,55,55,55,-1,-1,-1,10,10,10,30.06,30.06,4,4,14,0.18
2013-11-12,55,41,30,-1,-11,-20,10,10,10,30.42,30.06,11,5,22,0.18
2013-11-13,40,32,25,-12,-19,-24,10,10,10,30.50,30.40,11,3,21,0.00
2013-11-14,55,41,28,0,-11,-21,10,10,10,30.42,30.30,11,3,20,0.00
2013-11-15,60,43,32,3,-10,-18,10,10,10,30.38,30.28,4,0,9,0.00
2013-11-16,56,47,39,0,-6,-13,10,10,10,30.47,30.35,3,0,8,0.05
2013-11-17,65,57,48,7,1,-6,10,10,10,30.38,29.91,3,0,8,0.00
2013-11-18,68,60,51,9,4,-3,10,10,10,29.92,29.74,11,3,21,0.17
2013-11-19,51,44,35,-3,-9,-16,10,10,10,30.47,29.92,15,5,26,0.12
2013-11-20,44,36,28,-9,-15,-21,10,10,10,30.71,30.46,8,1,14,0.00
2013-11-21,53,44,33,-2,-9,-17,10,10,10,30.72,30.51,6,1,12,0.00
2013-11-22,60,53,47,3,-2,-7,10,10,10,30.51,30.03,8,2,14,0.02
2013-11-23,54,44,32,-2,-9,-18,10,10,10,30.16,30.03,15,5,28,0.01
2013-11-24,32,26,23,-18,-23,-26,10,10,10,30.53,30.13,18,7,32,1.28
2013-11-25,37,28,20,-14,-21,-28,10,10,10,30.63,30.47,8,2,14,0.00
2013-11-26,54,40,31,-1,-12,-19,10,10,10,30.48,29.83,8,1,17,0.48
2013-11-27,63,48,34,5,-6,-17,10,10,10,29.89,29.43,14,5,27,1.05
2013-11-28,37,32,28,-14,-18,-22,10,10,10,30.60,29.90,14,4,26,0.02
2013-11-29,40,33,27,-12,-18,-22,10,10,10,30.84,30.59,8,1,15,0.00
2013-11-30,40,34,26,-12,-17,-23,10,10,10,30.84,30.47,6,2,12,0.00
2013-12-1,52,42,33,-3,-11,-18,10,10,10,30.47,30.13,5,1,10,0.00
2013-12-2,53,41,33,-2,-11,-18,10,10,10,30.13,29.99,3,0,5,0.00
2013-12-3,55,44,33,-1,-9,-18,10,10,10,30.12,29.97,6,1,11,0.00
2013-12-4,54,44,34,-2,-9,-17,10,10,10,30.24,30.12,4,0,8,0.00
2013-12-5,63,55,48,6,-1,-6,10,10,10,30.23,30.06,5,0,9,0.00
2013-12-6,63,50,38,5,-4,-14,10,10,10,30.24,29.99,10,2,18,0.30
2013-12-7,46,37,31,-11,-15,-19,10,10,10,30.63,30.19,10,3,18,0.08
2013-12-8,39,31,27,-13,-19,-23,10,10,10,30.70,30.43,7,1,11,0.17
2013-12-9,45,40,34,-8,-12,-17,10,10,10,30.44,30.07,8,3,16,0.48
2013-12-10,36,32,26,-16,-18,-24,10,10,10,30.28,29.97,6,2,11,0.02
2013-12-11,34,28,22,-17,-22,-26,10,10,10,30.48,30.28,8,2,18,0.02
2013-12-12,28,24,19,-21,-25,-28,10,10,10,30.48,30.31,11,2,23,0.00
2013-12-13,37,28,16,-14,-22,-30,10,10,10,30.45,30.27,10,2,17,0.05
2013-12-14,51,36,27,-4,-15,-22,10,10,10,30.56,29.78,12,4,22,1.37
2013-12-15,54,40,33,-1,-12,-17,10,10,10,29.99,29.59,13,4,26,0.41
2013-12-16,34,28,20,-16,-22,-28,10,10,10,30.36,29.98,13,3,21,0.00
2013-12-17,45,32,24,-9,-18,-25,10,10,10,30.34,30.01,5,1,11,0.12
2013-12-18,39,30,24,-13,-20,-24,10,10,10,30.31,30.02,12,2,20,0.01
2013-12-19,50,38,24,-5,-14,-25,10,10,10,30.33,30.16,7,1,13,0.00
2013-12-20,57,48,37,1,-6,-15,10,10,10,30.22,30.10,8,1,14,0.00
2013-12-21,69,58,51,10,1,-4,10,10,10,30.14,30.01,10,2,18,0.00
2013-12-22,73,65,61,14,7,4,10,10,10,30.09,29.94,11,3,22,0.05
2013-12-23,66,55,42,8,-1,-10,10,10,10,30.27,30.06,11,3,18,0.39
2013-12-24,42,36,28,-10,-15,-22,10,10,10,30.47,30.20,14,4,24,0.00
2013-12-25,32,26,20,-18,-23,-28,10,10,10,30.65,30.47,11,2,20,0.00
2013-12-26,41,31,25,-11,-19,-24,10,10,10,30.54,30.28,8,1,15,0.00
2013-12-27,46,32,23,-8,-18,-25,10,10,10,30.50,30.38,8,1,17,0.00
2013-12-28,58,41,25,2,-11,-24,10,10,10,30.42,30.20,11,2,24,0.00
2013-12-29,59,45,42,3,-8,-11,10,10,10,30.21,29.50,14,2,26,0.94
2013-12-30,48,38,25,-6,-14,-24,10,10,10,30.30,29.82,10,3,17,0.00
2013-12-31,39,29,23,-13,-20,-26,10,10,10,30.42,30.18,13,3,21,0.00
2014-1-1,41,32,22,-11,-19,-26,10,10,10,30.53,30.33,8,1,14,0.00
2014-1-2,40,32,24,-12,-18,-25,10,10,10,30.32,29.71,12,6,21,0.00